Hourly Data Report for April 06, 2020

TORONTO CITY
ONTARIO
Current Station Operator: ECCC - MSC

43°40'00.000" N
79°24'00.000" W
112.50 m
6158355
71508
XTO

Download Data

Hourly Data (April 2020)
Hourly Data Report for April 6, 2020
TIME
LST
Temp Definition
°C
Dew Point Definition
°C
Rel Hum Definition
%
Precip. Amount Definition
mm

Wind Dir Definition
10's deg

Wind Spd Definition
km/h
Visibility Definition
km
Stn Press Definition
kPa
Hmdx Definition


Wind Chill Definition


Weather Definition


00:00 4.3 -2.2 63 0.0       100.68     LegendNANA
01:00 3.7 -1.9 67 0.0       100.68     LegendNANA
02:00 3.7 -1.8 67 0.0       100.69     LegendNANA
03:00 3.4 -2.3 66 0.0       100.70     LegendNANA
04:00 2.9 -2.9 66 0.0       100.70     LegendNANA
05:00 2.5 -2.7 69 0.0       100.72     LegendNANA
06:00 2.0 -2.2 74 0.0       100.75     LegendNANA
07:00 3.1 -1.4 72 0.0       100.78     LegendNANA
08:00 6.0 -2.1 56 0.0       100.79     LegendNANA
09:00 7.7 -3.3 46 0.0       100.78     LegendNANA
10:00 9.5 -6.0 33 0.0       100.77     LegendNANA
11:00 10.4 -5.3 33 0.0       100.73     LegendNANA
12:00 9.3 -5.9 34 0.3       100.69     LegendNANA
13:00 10.4 -5.5 32 0.2       100.59     LegendNANA
14:00 12.3 -4.1 32 0.2       100.48     LegendNANA
15:00 12.6 -4.7 30 0.2       100.36     LegendNANA
16:00 12.4 -5.3 29 0.6       100.28     LegendNANA
17:00 11.8 -2.0 38 0.0       100.27     LegendNANA
18:00 11.5 0.0 45 0.0       100.30     LegendNANA
19:00 11.3 -1.0 42 0.0       100.27     LegendNANA
20:00 11.4 -1.7 40 0.0       100.29     LegendNANA
21:00 11.3 -2.2 39 0.0       100.30     LegendNANA
22:00 11.8 -5.5 29 0.0       100.25     LegendNANA
23:00 11.3 -4.4 33 0.0       100.23     LegendNANA

Notes on Data Quality.

Legend

  • E = Estimated
  • M = Missing
  • NA = Not Available*
  • [empty] = Indicates an unobserved value
Date modified: